Date String (YYYY-MM-DD hh:mm:ss) UTC,Instrument flags,absolute air pressure of the measurement (hPa),sample flow rate (lpm),inlet stack bypass flow (lpm),air temperature of the measurement (°C),ambient temperature measured by the external sensor (°C),aerosol sample conditioner tube jacket temperature (°C),OPC LED temperature (°C),internal box temperature (°C),relative humidity of the measurement (%),span deviation,mass concentration of particles derived from Lorenz-Mie calculation of OPC scattering (μg/m³),mass concentration of particles derived from Lorenz-Mie calculation of OPC scattering (μg/m³),mass concentration of particles derived from Lorenz-Mie calculation of OPC scattering (μg/m³)
DateTimeUTC,F1_M11,P_M11,Q1_M11,Q2_M11,T1_M11,T2_M11,T3_M11,T4_M11,T5_M11,U1_M11,ZSPAN_M11,X2_M11,X0_M11,X1_M11
2023-06-11 07:00:00,SystemResetWarning,0832.3,5.00,000.00,030.4,028.7,000.0,039.0,031.9,23.8,0000.0,0003.19,0006.17,0002.54
2023-06-11 07:01:00,SystemResetWarning,0832.3,5.00,000.00,030.4,028.7,000.0,039.0,031.9,23.8,0000.0,0003.20,0006.17,0002.57
2023-06-11 07:02:00,SystemResetWarning,0832.3,5.00,000.00,030.4,028.7,000.0,039.0,031.8,23.8,0000.0,0003.19,0006.26,0002.59
2023-06-11 07:03:00,SystemResetWarning,0832.3,4.99,000.00,030.4,028.7,000.0,039.0,031.8,23.8,0000.0,0003.23,0006.64,0002.63
2023-06-11 07:04:00,SystemResetWarning,0832.3,5.00,000.00,030.4,028.7,000.0,039.0,031.9,23.8,0000.0,0003.23,0006.59,0002.63
2023-06-11 07:05:00,SystemResetWarning,0832.2,4.99,000.00,030.4,028.7,000.0,039.0,031.8,23.8,0000.0,0003.26,0006.72,0002.63
2023-06-11 07:06:00,SystemResetWarning,0832.1,4.99,000.00,030.4,028.7,000.0,039.0,031.8,23.8,0000.0,0003.27,0006.82,0002.63
2023-06-11 07:07:00,SystemResetWarning,0832.2,5.00,000.00,030.4,028.7,000.0,039.0,031.8,23.7,0000.0,0003.28,0007.23,0002.65
2023-06-11 07:08:00,SystemResetWarning,0832.1,5.01,000.00,030.4,028.7,000.0,039.0,031.8,23.7,0000.0,0003.29,0007.80,0002.67
2023-06-11 07:09:00,SystemResetWarning,0832.0,5.01,000.00,030.3,028.7,000.0,039.0,031.8,23.8,0000.0,0003.31,0007.58,0002.68
2023-06-11 07:10:00,SystemResetWarning,0832.0,5.01,000.00,030.3,028.7,000.0,038.9,031.8,23.9,0000.0,0003.29,0007.43,0002.65
2023-06-11 07:11:00,SystemResetWarning,0832.0,4.99,000.00,030.3,028.6,000.0,038.9,031.7,23.9,0000.0,0003.27,0007.68,0002.62
2023-06-11 07:12:00,SystemResetWarning,0832.0,4.99,000.00,030.3,028.6,000.0,038.9,031.7,24.0,0000.0,0003.28,0007.81,0002.59
2023-06-11 07:13:00,SystemResetWarning,0832.0,5.00,000.00,030.3,028.6,000.0,038.9,031.7,23.9,0000.0,0003.27,0007.75,0002.57
2023-06-11 07:14:00,SystemResetWarning,0832.0,5.01,000.00,030.3,028.6,000.0,038.9,031.7,24.0,0000.0,0003.24,0007.59,0002.55
2023-06-11 07:15:00,SystemResetWarning,0832.0,5.01,000.00,030.2,028.6,000.0,038.9,031.7,24.0,0000.0,0003.26,0007.67,0002.55
2023-06-11 07:16:00,SystemResetWarning,0832.0,5.00,000.00,030.2,028.6,000.0,038.9,031.7,24.1,0000.0,0003.26,0007.70,0002.54
2023-06-11 07:17:00,SystemResetWarning,0832.0,5.00,000.00,030.2,028.6,000.0,038.9,031.7,24.1,0000.0,0003.24,0007.61,0002.53
2023-06-11 07:18:00,SystemResetWarning,0832.0,5.00,000.00,030.2,028.6,000.0,038.9,031.7,24.1,0000.0,0003.24,0006.77,0002.53
2023-06-11 07:19:00,SystemResetWarning,0832.0,5.01,000.00,030.2,028.6,000.0,038.9,031.7,24.0,0000.0,0003.24,0006.32,0002.51
2023-06-11 07:20:00,SystemResetWarning,0832.1,4.99,000.00,030.3,028.6,000.0,038.9,031.7,24.0,0000.0,0003.21,0006.18,0002.49
2023-06-11 07:21:00,SystemResetWarning,0832.0,5.00,000.00,030.2,028.6,000.0,038.9,031.7,24.1,0000.0,0003.20,0006.14,0002.49
2023-06-11 07:22:00,SystemResetWarning,0832.0,5.01,000.00,030.2,028.6,000.0,038.9,031.7,24.1,0000.0,0003.22,0005.76,0002.49
2023-06-11 07:23:00,SystemResetWarning,0832.0,5.01,000.00,030.2,028.6,000.0,038.9,031.7,24.1,0000.0,0003.21,0005.37,0002.50
2023-06-11 07:24:00,SystemResetWarning,0832.0,5.00,000.00,030.2,028.6,000.0,038.9,031.7,24.1,0000.0,0003.23,0005.36,0002.52
2023-06-11 07:25:00,SystemResetWarning,0832.0,5.01,000.00,030.2,028.6,000.0,038.9,031.7,24.1,0000.0,0003.22,0005.19,0002.51
2023-06-11 07:26:00,SystemResetWarning,0832.0,4.99,000.00,030.2,028.6,000.0,038.9,031.7,24.0,0000.0,0003.19,0005.00,0002.50
2023-06-11 07:27:00,SystemResetWarning,0832.1,4.99,000.00,030.2,028.6,000.0,038.9,031.7,24.0,0000.0,0003.16,0004.93,0002.51
2023-06-11 07:28:00,SystemResetWarning,0832.0,5.00,000.00,030.2,028.6,000.0,038.9,031.7,24.0,0000.0,0003.17,0006.01,0002.53
2023-06-11 07:29:00,SystemResetWarning,0832.0,4.99,000.00,030.2,028.6,000.0,038.9,031.7,24.0,0000.0,0003.21,0006.39,0002.55
2023-06-11 07:30:00,SystemResetWarning,0832.0,5.00,000.00,030.2,028.6,000.0,038.9,031.7,24.1,0000.0,0003.20,0006.31,0002.57
2023-06-11 07:31:00,SystemResetWarning,0832.1,5.00,000.00,030.2,028.6,000.0,038.9,031.7,24.1,0000.0,0003.22,0006.36,0002.61
2023-06-11 07:32:00,SystemResetWarning,0832.1,5.00,000.00,030.2,028.6,000.0,038.8,031.7,24.1,0000.0,0003.28,0006.52,0002.68
2023-06-11 07:33:00,SystemResetWarning,0832.1,5.01,000.00,030.2,028.6,000.0,038.8,031.7,24.1,0000.0,0003.32,0006.57,0002.75
2023-06-11 07:34:00,SystemResetWarning,0832.0,5.00,000.00,030.2,028.5,000.0,038.8,031.6,24.1,0000.0,0003.37,0006.75,0002.80
2023-06-11 07:35:00,SystemResetWarning,0832.1,5.00,000.00,030.2,028.5,000.0,038.8,031.6,24.1,0000.0,0003.37,0006.80,0002.82
2023-06-11 07:36:00,SystemResetWarning,0832.0,5.01,000.00,030.2,028.5,000.0,038.8,031.6,24.1,0000.0,0003.41,0006.95,0002.86
2023-06-11 07:37:00,SystemResetWarning,0832.1,5.00,000.00,030.2,028.5,000.0,038.8,031.6,24.1,0000.0,0003.44,0007.05,0002.88
2023-06-11 07:38:00,SystemResetWarning,0832.0,5.00,000.00,030.2,028.5,000.0,038.8,031.6,24.1,0000.0,0003.45,0007.10,0002.90
2023-06-11 07:39:00,SystemResetWarning,0832.0,5.00,000.00,030.2,028.5,000.0,038.8,031.6,24.1,0000.0,0003.45,0006.80,0002.89
2023-06-11 07:40:00,SystemResetWarning,0832.0,5.00,000.00,030.2,028.5,000.0,038.8,031.6,24.1,0000.0,0003.44,0006.71,0002.88
2023-06-11 07:41:00,SystemResetWarning,0832.1,5.00,000.00,030.2,028.5,000.0,038.8,031.6,24.2,0000.0,0003.41,0006.48,0002.85
2023-06-11 07:42:00,SystemResetWarning,0832.0,4.99,000.00,030.2,028.5,000.0,038.8,031.6,24.2,0000.0,0003.38,0006.35,0002.82
2023-06-11 07:43:00,SystemResetWarning,0832.1,5.00,000.00,030.2,028.5,000.0,038.8,031.6,24.2,0000.0,0003.31,0006.12,0002.76
2023-06-11 07:44:00,SystemResetWarning,0832.1,5.00,000.00,030.2,028.5,000.0,038.8,031.6,24.2,0000.0,0003.26,0006.01,0002.69
2023-06-11 07:45:00,SystemResetWarning,0832.1,5.00,000.00,030.2,028.5,000.0,038.8,031.6,24.3,0000.0,0003.21,0005.94,0002.63
2023-06-11 07:46:00,SystemResetWarning,0832.1,5.00,000.00,030.2,028.5,000.0,038.8,031.6,24.3,0000.0,0003.18,0007.02,0002.60
2023-06-11 07:47:00,SystemResetWarning,0832.1,5.00,000.00,030.2,028.5,000.0,038.8,031.6,24.3,0000.0,0003.15,0007.50,0002.57
2023-06-11 07:48:00,SystemResetWarning,0832.1,5.01,000.00,030.2,028.5,000.0,038.8,031.6,24.3,0000.0,0003.14,0007.95,0002.54
2023-06-11 07:49:00,SystemResetWarning,0832.1,5.01,000.00,030.2,028.5,000.0,038.8,031.6,24.3,0000.0,0003.12,0007.92,0002.52
2023-06-11 07:50:00,SystemResetWarning,0832.1,5.01,000.00,030.2,028.5,000.0,038.8,031.6,24.3,0000.0,0003.11,0007.56,0002.51
2023-06-11 07:51:00,SystemResetWarning,0832.0,5.00,000.00,030.1,028.5,000.0,038.8,031.6,24.3,0000.0,0003.09,0007.37,0002.50
2023-06-11 07:52:00,SystemResetWarning,0832.0,5.00,000.00,030.1,028.5,000.0,038.8,031.6,24.3,0000.0,0003.12,0007.44,0002.51
2023-06-11 07:53:00,SystemResetWarning,0832.0,4.99,000.00,030.1,028.5,000.0,038.8,031.6,24.3,0000.0,0003.14,0007.49,0002.51
2023-06-11 07:54:00,SystemResetWarning,0832.0,5.00,000.00,030.1,028.4,000.0,038.8,031.5,24.3,0000.0,0003.16,0007.59,0002.52
2023-06-11 07:55:00,SystemResetWarning,0832.0,5.00,000.00,030.1,028.4,000.0,038.8,031.5,24.4,0000.0,0003.18,0007.62,0002.54
2023-06-11 07:56:00,SystemResetWarning,0832.0,5.01,000.00,030.1,028.4,000.0,038.7,031.5,24.3,0000.0,0003.18,0007.83,0002.55
2023-06-11 07:57:00,SystemResetWarning,0832.0,5.01,000.00,030.1,028.4,000.0,038.7,031.5,24.3,0000.0,0003.20,0007.69,0002.56
2023-06-11 07:58:00,SystemResetWarning,0832.0,5.00,000.00,030.1,028.4,000.0,038.7,031.5,24.3,0000.0,0003.19,0007.20,0002.57
2023-06-11 07:59:00,SystemResetWarning,0832.0,4.99,000.00,030.1,028.4,000.0,038.7,031.5,24.3,0000.0,0003.18,0006.39,0002.59
